FW6618 Weather Reports


Display with metric or nautical units.
time (UTC)temp
F
wind
direction
speed
MPH
gust
MPH
rain 1hr
in
rain 24hr
in
rain mn
in
humidity
%
barometer
mb
20260901192028 70 271 1.0 3.0 0.00 0.40 0.40 85 1018.2
20260901191544 70 245 1.0 3.0 0.00 0.40 0.40 88 1018.0
20260901191023 70 321 0.0 3.0 0.00 0.40 0.40 89 1018.0
20260901190523 69 304 1.0 3.0 0.00 0.40 0.40 88 1018.1
20260901190101 70 205 0.0 2.0 0.00 0.40 0.40 88 1018.2
20260901185521 69 0 0.0 1.0 0.00 0.40 0.40 91 1018.3
20260901185024 69 134 0.0 2.0 0.00 0.40 0.40 94 1018.3
20260901184546 68 134 0.0 3.0 0.00 0.40 0.40 94 1018.5
20260901184024 67 263 0.0 3.0 0.00 0.40 0.40 95 1018.5
20260901183523 66 304 1.0 3.0 0.00 0.40 0.40 95 1018.4
20260901183044 65 0 0.0 3.0 0.00 0.40 0.40 96 1018.6
20260901182524 65 245 1.0 3.0 0.01 0.40 0.40 97 1018.8
20260901182025 65 295 0.0 3.0 0.01 0.40 0.40 97 1018.8
20260901181544 65 311 1.0 3.0 0.01 0.40 0.40 96 1018.7
20260901181020 64 235 1.0 6.0 0.01 0.40 0.40 96 1018.8
20260901180526 64 302 2.0 6.0 0.01 0.40 0.40 96 1018.6
20260901180043 64 318 0.0 6.0 0.01 0.40 0.40 97 1018.7
20260901175522 64 283 1.0 4.0 0.02 0.40 0.40 97 1018.6
20260901175020 64 288 0.0 4.0 0.02 0.40 0.40 97 1018.6
20260901174542 64 299 2.0 4.0 0.02 0.40 0.40 97 1018.5
20260901174024 64 276 1.0 4.0 0.03 0.40 0.40 97 1018.5
20260901173523 64 188 0.0 3.0 0.03 0.40 0.40 97 1018.5
20260901173044 64 299 0.0 3.0 0.04 0.39 0.39 97 1018.4
20260901172523 64 270 0.0 5.0 0.06 0.39 0.39 97 1018.6
20260901172024 64 274 0.0 5.0 0.06 0.39 0.39 97 1018.6
20260901171545 64 295 1.0 4.0 0.06 0.39 0.39 97 1018.6
20260901171019 64 307 2.0 4.0 0.06 0.39 0.39 97 1018.6
20260901170519 65 307 1.0 5.0 0.06 0.39 0.39 97 1018.4
20260901170046 65 283 2.0 5.0 0.06 0.39 0.39 97 1018.4
20260901165523 65 300 1.0 3.0 0.05 0.38 0.38 97 1018.4
20260901165027 65 271 0.0 3.0 0.05 0.38 0.38 98 1018.4
20260901164549 65 271 1.0 3.0 0.05 0.38 0.38 97 1018.4
20260901164024 66 0 0.0 0.0 0.05 0.37 0.37 98 1018.5
20260901163524 66 0 0.0 0.0 0.04 0.36 0.36 98 1018.5
20260901163042 66 0 0.0 0.0 0.04 0.35 0.35 98 1018.5
20260901162522 66 0 0.0 0.0 0.02 0.33 0.33 98 1018.5
20260901162021 66 0 0.0 0.0 0.03 0.33 0.33 98 1018.4
20260901161541 66 0 0.0 1.0 0.04 0.33 0.33 98 1018.3
20260901161021 66 0 0.0 2.0 0.05 0.33 0.33 98 1018.2
20260901160527 66 129 0.0 3.0 0.05 0.33 0.33 98 1018.1
20260901160044 66 130 1.0 3.0 0.05 0.33 0.33 98 1017.9
20260901155521 66 278 1.0 3.0 0.05 0.33 0.33 98 1017.8
20260901155020 66 6 1.0 3.0 0.07 0.33 0.33 98 1017.7
20260901154540 66 300 1.0 3.0 0.09 0.33 0.33 98 1017.2
20260901154024 65 270 1.0 3.0 0.09 0.32 0.32 98 1016.3
20260901153527 65 307 1.0 2.0 0.09 0.32 0.32 98 1016.2
20260901153045 66 0 0.0 0.0 0.08 0.31 0.31 97 1016.6
20260901152524 66 0 0.0 0.0 0.08 0.31 0.31 98 1017.4
20260901152023 66 0 0.0 0.0 0.07 0.30 0.30 98 1018.1
20260901151544 66 0 0.0 0.0 0.06 0.29 0.29 98 1018.6
20260901151030 66 0 0.0 0.0 0.05 0.28 0.28 98 1018.6
20260901150524 66 0 0.0 0.0 0.05 0.28 0.28 98 1018.4
20260901150044 66 0 0.0 0.0 0.05 0.28 0.28 98 1018.4
20260901145521 66 0 0.0 0.0 0.04 0.27 0.27 98 1018.3
20260901145019 67 0 0.0 0.0 0.03 0.26 0.26 98 1018.3
20260901144541 66 0 0.0 0.0 0.01 0.24 0.24 98 1018.2
20260901144027 66 0 0.0 0.0 0.00 0.23 0.23 97 1018.2
20260901143527 67 0 0.0 0.0 0.00 0.23 0.23 97 1018.1
20260901143057 67 0 0.0 0.0 0.00 0.23 0.23 98 1018.0
20260901142525 67 0 0.0 0.0 0.00 0.23 0.23 97 1018.0
20260901142022 67 0 0.0 0.0 0.00 0.23 0.23 98 1017.9
20260901141542 67 0 0.0 1.0 0.00 0.23 0.23 98 1018.1
20260901141026 67 0 0.0 4.0 0.00 0.23 0.23 98 1018.0
20260901140521 67 286 0.0 4.0 0.00 0.23 0.23 98 1018.0
20260901140041 67 293 0.0 4.0 0.00 0.23 0.23 98 1017.9
20260901135521 66 0 0.0 0.0 0.00 0.23 0.23 98 1017.9
20260901135024 66 0 0.0 0.0 0.00 0.23 0.23 98 1018.0
20260901134541 66 0 0.0 0.0 0.00 0.23 0.23 98 1018.2
20260901134029 66 0 0.0 0.0 0.00 0.23 0.23 98 1018.3
20260901133523 66 0 0.0 0.0 0.00 0.23 0.23 98 1018.3
20260901133052 65 0 0.0 0.0 0.00 0.23 0.23 98 1018.4
20260901132521 65 0 0.0 0.0 0.00 0.23 0.23 98 1018.4
20260901132021 65 0 0.0 0.0 0.00 0.23 0.23 98 1018.6
20260901131541 65 0 0.0 0.0 0.00 0.23 0.23 98 1018.6
20260901131019 65 0 0.0 0.0 0.00 0.23 0.23 98 1018.7
20260901130521 65 0 0.0 0.0 0.00 0.23 0.23 98 1018.8
20260901130048 65 0 0.0 0.0 0.00 0.23 0.23 98 1018.9
20260901125523 65 0 0.0 0.0 0.00 0.23 0.23 98 1018.8
20260901125028 65 0 0.0 0.0 0.00 0.23 0.23 98 1018.9
20260901124542 65 0 0.0 0.0 0.00 0.23 0.23 98 1018.8
20260901124026 65 0 0.0 0.0 0.00 0.23 0.23 98 1018.7
20260901123523 65 0 0.0 0.0 0.00 0.23 0.23 98 1018.7
20260901123044 64 0 0.0 0.0 0.00 0.23 0.23 98 1018.7
20260901122527 64 0 0.0 0.0 0.00 0.23 0.23 98 1018.8
20260901122019 64 0 0.0 0.0 0.00 0.23 0.23 98 1018.7
20260901121541 64 0 0.0 0.0 0.00 0.23 0.23 98 1018.8
20260901121021 64 0 0.0 0.0 0.01 0.23 0.23 98 1018.9
20260901120521 64 0 0.0 0.0 0.01 0.23 0.23 98 1018.8
20260901120053 64 0 0.0 0.0 0.01 0.23 0.23 98 1018.8
20260901115524 64 0 0.0 0.0 0.02 0.23 0.23 98 1018.7
20260901115025 64 0 0.0 0.0 0.04 0.23 0.23 98 1018.8
20260901114539 64 0 0.0 0.0 0.07 0.23 0.23 98 1018.9
20260901114023 63 0 0.0 0.0 0.11 0.23 0.23 98 1018.9
20260901113524 63 0 0.0 0.0 0.14 0.23 0.23 98 1018.6
20260901113053 63 0 0.0 0.0 0.16 0.23 0.23 98 1018.7
20260901112520 63 0 0.0 0.0 0.18 0.23 0.23 98 1018.7
20260901112024 63 0 0.0 0.0 0.19 0.23 0.23 98 1018.8
20260901111542 63 0 0.0 0.0 0.19 0.22 0.22 98 1018.8
20260901111023 63 0 0.0 0.0 0.20 0.22 0.22 98 1018.8
20260901110523 63 0 0.0 0.0 0.21 0.22 0.22 98 1018.8
20260901110045 63 0 0.0 0.0 0.21 0.21 0.21 98 1018.7
20260901105524 63 0 0.0 0.0 0.20 0.20 0.20 97 1019.0
20260901105023 63 0 0.0 0.0 0.18 0.18 0.18 97 1019.1
20260901104549 63 0 0.0 0.0 0.15 0.15 0.15 97 1018.9
20260901104021 64 0 0.0 0.0 0.11 0.11 0.11 97 1018.9
20260901103520 64 0 0.0 0.0 0.09 0.09 0.09 97 1018.9
20260901103042 64 0 0.0 0.0 0.06 0.06 0.06 97 1018.8
20260901102519 64 0 0.0 0.0 0.05 0.05 0.05 97 1018.8
20260901102020 64 0 0.0 0.0 0.04 0.04 0.04 97 1018.7
20260901101549 64 0 0.0 0.0 0.03 0.03 0.03 97 1018.6
20260901101024 64 0 0.0 0.0 0.02 0.02 0.02 97 1018.4
20260901100523 64 0 0.0 0.0 0.01 0.01 0.01 97 1018.3
20260901100044 64 0 0.0 0.0 0.00 0.00 0.00 97 1018.2
20260901095524 64 0 0.0 0.0 0.00 0.00 0.00 97 1018.3
20260901095025 64 0 0.0 0.0 0.00 0.00 0.00 97 1018.2
20260901094541 64 0 0.0 0.0 0.00 0.00 0.00 97 1018.1
20260901094021 64 0 0.0 0.0 0.00 0.00 0.00 97 1018.1
20260901093524 64 0 0.0 0.0 0.00 0.00 0.00 97 1018.2
20260901093050 64 0 0.0 0.0 0.00 0.00 0.00 97 1018.2
20260901092524 64 0 0.0 0.0 0.00 0.00 0.00 97 1018.2
20260901092026 64 0 0.0 0.0 0.00 0.00 0.00 97 1018.2
20260901091553 64 0 0.0 0.0 0.00 0.00 0.00 97 1018.2
20260901091025 64 0 0.0 0.0 0.00 0.00 0.00 97 1018.4
20260901090523 64 0 0.0 0.0 0.00 0.00 0.00 97 1018.3
20260901090049 64 0 0.0 0.0 0.00 0.00 0.00 97 1018.4
20260901085524 64 0 0.0 0.0 0.00 0.00 0.00 97 1018.4
20260901085022 64 0 0.0 0.0 0.00 0.00 0.00 97 1018.5
20260901084541 64 0 0.0 0.0 0.00 0.00 0.00 97 1018.5
20260901084024 64 0 0.0 0.0 0.00 0.00 0.00 97 1018.3
20260901083526 64 0 0.0 0.0 0.00 0.00 0.00 97 1018.6
20260901083042 64 0 0.0 0.0 0.00 0.00 0.00 97 1018.7
20260901082519 64 0 0.0 0.0 0.00 0.00 0.00 97 1018.6
20260901082024 64 0 0.0 0.0 0.00 0.00 0.00 97 1018.7
20260901081538 64 0 0.0 0.0 0.00 0.00 0.00 97 1018.8
20260901081024 64 0 0.0 0.0 0.00 0.00 0.00 97 1018.6
20260901080524 64 0 0.0 0.0 0.00 0.00 0.00 97 1018.6
20260901080045 64 0 0.0 0.0 0.00 0.00 0.00 97 1018.8
20260901075527 64 0 0.0 0.0 0.00 0.00 0.00 97 1018.8
20260901075026 64 0 0.0 0.0 0.00 0.00 0.00 97 1018.8
20260901074548 64 0 0.0 0.0 0.00 0.00 0.00 96 1018.9
20260901074027 64 0 0.0 0.0 0.00 0.00 0.00 96 1018.7
20260901073524 64 0 0.0 0.0 0.00 0.00 0.00 96 1018.6
20260901073041 64 0 0.0 0.0 0.00 0.00 0.00 96 1018.4
20260901072519 64 0 0.0 0.0 0.00 0.00 0.00 96 1018.5
20260901072022 64 0 0.0 0.0 0.00 0.00 0.00 96 1018.7
20260901071542 64 0 0.0 0.0 0.00 0.00 0.00 96 1018.5
20260901071025 64 0 0.0 0.0 0.00 0.00 0.00 96 1018.3
20260901070525 64 0 0.0 0.0 0.00 0.00 0.00 96 1018.5
20260901070045 64 0 0.0 0.0 0.00 0.00 0.00 96 1018.7
20260901065521 64 0 0.0 0.0 0.00 0.00 0.00 96 1019.1
20260901065019 64 0 0.0 0.0 0.00 0.00 0.00 96 1019.1
20260901064542 64 0 0.0 0.0 0.00 0.00 0.00 96 1019.1
20260901064025 64 0 0.0 0.0 0.00 0.00 0.00 96 1019.2
20260901063518 64 0 0.0 0.0 0.00 0.00 0.00 96 1019.3
20260901063039 64 0 0.0 0.0 0.00 0.00 0.00 96 1019.4
20260901062524 64 0 0.0 0.0 0.00 0.00 0.00 96 1019.4
20260901062025 64 0 0.0 0.0 0.00 0.00 0.00 96 1019.6
20260901061543 64 0 0.0 0.0 0.00 0.00 0.00 96 1019.6
20260901061024 64 0 0.0 0.0 0.00 0.00 0.00 96 1019.7
20260901060523 64 0 0.0 0.0 0.00 0.00 0.00 96 1019.7
20260901060044 64 0 0.0 0.0 0.00 0.00 0.00 96 1019.6
20260901055523 64 0 0.0 0.0 0.00 0.00 0.00 96 1019.5
20260901055024 64 0 0.0 0.0 0.00 0.00 0.00 96 1019.6
20260901054538 64 0 0.0 0.0 0.00 0.00 0.00 96 1019.6
20260901054025 64 0 0.0 0.0 0.00 0.00 0.00 96 1019.7
20260901053524 64 0 0.0 0.0 0.00 0.00 0.00 96 1019.6
20260901053043 64 0 0.0 0.0 0.00 0.00 0.00 96 1019.7
20260901052527 64 0 0.0 0.0 0.00 0.00 0.00 96 1019.7
20260901052025 64 0 0.0 0.0 0.00 0.00 0.00 96 1019.7
20260901051541 64 0 0.0 0.0 0.00 0.00 0.00 96 1019.7
20260901051021 64 0 0.0 0.0 0.00 0.00 0.00 96 1019.9
20260901050518 64 0 0.0 0.0 0.00 0.00 0.00 96 1020.0
20260901050045 64 0 0.0 0.0 0.00 0.00 0.00 96 1020.1
20260901045518 64 0 0.0 0.0 0.00 0.00 0.00 96 1020.1
20260901045029 64 0 0.0 0.0 0.00 0.00 0.00 96 1019.9
20260901044541 64 0 0.0 0.0 0.00 0.00 0.00 95 1019.9
20260901044023 64 0 0.0 0.0 0.00 0.00 0.00 95 1020.0
20260901043524 64 0 0.0 0.0 0.00 0.00 0.00 95 1020.0
20260901043106 64 0 0.0 0.0 0.00 0.00 0.00 95 1019.8
20260901042525 64 0 0.0 0.0 0.00 0.00 0.00 95 1019.7
20260901042017 64 0 0.0 0.0 0.00 0.00 0.00 95 1019.8
20260901041541 64 0 0.0 0.0 0.00 0.00 0.00 95 1019.8
20260901041024 64 0 0.0 0.0 0.00 0.00 0.00 95 1020.0
20260901040523 64 0 0.0 0.0 0.00 0.00 0.00 95 1020.0
20260901040055 64 0 0.0 0.0 0.00 0.00 0.00 95 1019.8
20260901035525 64 0 0.0 0.0 0.00 0.00 0.00 95 1019.9
20260901035024 64 0 0.0 0.0 0.00 0.00 0.00 95 1020.0
20260901034549 64 0 0.0 0.0 0.00 0.00 0.00 95 1019.9
20260901034020 64 0 0.0 0.0 0.00 0.00 0.00 95 1020.0
20260901033523 64 0 0.0 0.0 0.00 0.00 0.00 95 1019.9
20260901033100 64 0 0.0 0.0 0.00 0.00 0.00 95 1019.8
20260901032525 64 0 0.0 0.0 0.00 0.00 0.00 95 1019.9
20260901032025 64 0 0.0 0.0 0.00 0.00 0.00 95 1020.0
20260901031602 64 0 0.0 0.0 0.00 0.00 0.00 95 1020.1
20260901031027 65 0 0.0 0.0 0.00 0.00 0.00 95 1020.0
20260901030523 65 0 0.0 0.0 0.00 0.00 0.00 95 1020.1
20260901030046 65 0 0.0 0.0 0.00 0.00 0.00 95 1020.1
20260901025526 65 0 0.0 0.0 0.00 0.00 0.00 95 1020.2
20260901025023 65 0 0.0 0.0 0.00 0.00 0.00 95 1020.3
20260901024539 65 0 0.0 0.0 0.00 0.00 0.00 94 1020.2
20260901024025 65 0 0.0 0.0 0.00 0.00 0.00 94 1020.3
20260901023525 65 0 0.0 0.0 0.00 0.00 0.00 94 1020.3
20260901023044 65 0 0.0 0.0 0.00 0.00 0.00 94 1020.4
20260901022527 65 0 0.0 0.0 0.00 0.00 0.00 94 1020.3
20260901022019 65 0 0.0 0.0 0.00 0.00 0.00 94 1020.4
20260901021544 65 0 0.0 0.0 0.00 0.00 0.00 94 1020.4
20260901021020 65 0 0.0 0.0 0.00 0.00 0.00 94 1020.4
20260901020523 65 0 0.0 0.0 0.00 0.00 0.00 94 1020.4
20260901020042 65 0 0.0 0.0 0.00 0.00 0.00 94 1020.3
20260901015523 65 0 0.0 0.0 0.00 0.00 0.00 94 1020.3
20260901015024 65 0 0.0 0.0 0.00 0.00 0.00 94 1020.3
20260901014552 65 0 0.0 0.0 0.00 0.00 0.00 94 1020.2
20260901014024 65 0 0.0 0.0 0.00 0.00 0.00 94 1020.3
20260901013520 65 0 0.0 0.0 0.00 0.00 0.00 94 1020.2
20260901013047 65 0 0.0 0.0 0.00 0.00 0.00 94 1020.2
20260901012518 65 0 0.0 0.0 0.00 0.00 0.00 94 1020.3
20260901012018 65 0 0.0 0.0 0.00 0.00 0.00 94 1020.2
20260901011541 65 0 0.0 0.0 0.00 0.00 0.00 93 1020.2
20260901011023 65 0 0.0 0.0 0.00 0.00 0.00 93 1020.2
20260901010523 65 0 0.0 0.0 0.00 0.00 0.00 93 1020.1
20260901010045 65 0 0.0 0.0 0.00 0.00 0.00 93 1020.2
20260901005518 65 0 0.0 0.0 0.00 0.00 0.00 93 1020.2
20260901005025 65 0 0.0 0.0 0.00 0.00 0.00 93 1020.1
20260901004541 66 0 0.0 0.0 0.00 0.00 0.00 93 1020.0
20260901004022 66 0 0.0 0.0 0.00 0.00 0.00 93 1020.1
20260901003525 66 0 0.0 0.0 0.00 0.00 0.00 93 1020.1
20260901003052 66 0 0.0 0.0 0.00 0.00 0.00 93 1020.2
20260901002519 66 0 0.0 0.0 0.00 0.00 0.00 93 1020.1
20260901002020 66 0 0.0 0.0 0.00 0.00 0.00 93 1020.1
20260901001554 66 0 0.0 0.0 0.00 0.00 0.00 93 1020.0
20260901001019 66 0 0.0 0.0 0.00 0.00 0.00 93 1020.0
20260901000522 66 0 0.0 0.0 0.00 0.00 0.00 92 1020.0
20260901000039 66 0 0.0 0.0 0.00 0.00 0.00 92 1020.2
20260831235530 66 0 0.0 0.0 0.00 0.01 0.00 91 1020.0
20260831235024 67 0 0.0 0.0 0.00 0.01 0.00 92 1020.1
20260831234543 67 0 0.0 0.0 0.00 0.01 0.00 92 1020.2
20260831234023 67 0 0.0 0.0 0.00 0.01 0.00 92 1020.0
20260831233520 67 0 0.0 0.0 0.00 0.01 0.00 92 1020.1
20260831233042 67 0 0.0 0.0 0.00 0.01 0.00 91 1020.1
20260831232518 67 0 0.0 0.0 0.00 0.01 0.00 91 1020.1
20260831232018 67 0 0.0 0.0 0.00 0.01 0.00 91 1020.1
20260831231544 68 0 0.0 0.0 0.00 0.01 0.00 91 1020.2
20260831231026 68 0 0.0 0.0 0.00 0.01 0.00 91 1020.3
20260831230523 68 0 0.0 0.0 0.00 0.01 0.00 91 1020.3
20260831230049 68 0 0.0 0.0 0.00 0.01 0.00 90 1020.4
20260831225521 68 0 0.0 0.0 0.00 0.04 0.00 91 1020.4
20260831225027 68 0 0.0 0.0 0.00 0.04 0.00 90 1020.5
20260831224541 68 0 0.0 0.0 0.00 0.04 0.00 89 1020.6
20260831224023 69 0 0.0 0.0 0.00 0.04 0.00 89 1020.5
20260831223526 69 0 0.0 0.0 0.00 0.04 0.00 89 1020.5
20260831223044 69 0 0.0 0.0 0.00 0.04 0.00 89 1020.5
20260831222523 69 0 0.0 0.0 0.00 0.04 0.00 89 1020.5
20260831222031 69 0 0.0 0.0 0.00 0.04 0.00 88 1020.6
20260831221555 69 0 0.0 0.0 0.00 0.04 0.00 87 1020.4
20260831221023 69 0 0.0 0.0 0.00 0.04 0.00 88 1020.5
20260831220521 70 0 0.0 0.0 0.00 0.04 0.00 88 1020.6
20260831220049 70 0 0.0 1.0 0.00 0.04 0.00 87 1020.5
20260831215524 70 0 0.0 1.0 0.00 0.04 0.00 87 1020.5
20260831215025 70 0 0.0 0.0 0.00 0.04 0.00 86 1020.4
20260831214554 70 0 0.0 0.0 0.00 0.04 0.00 86 1020.3
20260831214026 70 0 0.0 1.0 0.00 0.04 0.00 85 1020.3
20260831213528 70 0 0.0 1.0 0.00 0.04 0.00 85 1020.4
20260831213051 71 296 0.0 1.0 0.00 0.04 0.00 83 1020.5
20260831212525 71 0 0.0 1.0 0.00 0.04 0.00 83 1020.4
20260831212028 71 0 0.0 1.0 0.00 0.04 0.00 83 1020.4
20260831211542 71 0 0.0 1.0 0.00 0.04 0.00 83 1020.4
20260831211024 71 0 0.0 1.0 0.00 0.04 0.00 82 1020.5
20260831210524 71 0 0.0 1.0 0.00 0.04 0.00 81 1020.5
20260831210047 71 296 0.0 1.0 0.00 0.04 0.00 82 1020.4
20260831205523 71 0 0.0 1.0 0.00 0.04 0.00 81 1020.5
20260831205027 72 296 0.0 1.0 0.00 0.04 0.00 80 1020.5
20260831204553 72 296 0.0 1.0 0.00 0.04 0.00 81 1020.6
20260831204026 73 294 0.0 1.0 0.00 0.04 0.00 78 1020.5
20260831203522 73 295 0.0 1.0 0.00 0.04 0.00 79 1020.5
20260831203057 74 295 0.0 3.0 0.00 0.04 0.00 80 1020.5
20260831202525 74 295 0.0 3.0 0.00 0.04 0.00 77 1020.5
20260831202027 74 270 1.0 3.0 0.00 0.04 0.00 72 1020.5
20260831201541 75 276 1.0 3.0 0.00 0.04 0.00 68 1020.5
20260831201026 75 283 1.0 3.0 0.00 0.04 0.00 73 1020.5
20260831200526 75 320 1.0 3.0 0.00 0.04 0.00 67 1020.6
20260831200044 75 265 0.0 1.0 0.00 0.04 0.00 74 1020.5
20260831195524 76 131 0.0 3.0 0.00 0.04 0.00 72 1020.6
20260831195025 76 131 0.0 4.0 0.00 0.04 0.00 70 1020.6
20260831194543 77 326 2.0 5.0 0.00 0.04 0.00 69 1020.7
20260831194024 77 148 2.0 6.0 0.00 0.04 0.00 63 1020.8
20260831193521 78 23 1.0 6.0 0.00 0.04 0.00 63 1020.7
20260831193042 77 166 1.0 4.0 0.00 0.04 0.00 69 1020.8
20260831192523 78 285 1.0 4.0 0.00 0.04 0.00 66 1020.8